Starlink 32800

operational
NORAD ID: 62743 Int'l Des: 2025-014 Owner: SPXS Country: US Constellation: starlink
LEOCIRCULAR

关于 Starlink 32800

正在加载描述...

实时位置

正在加载3D地球...

即将过境

高度历史

Altitude vs Time

uPlot chart will show altitude changes over time

两行轨道根数

1 62743U 25014J 25258.46149408 .00061588 00000-0 22251-2 0 9994
2 62743 43.0019 71.3271 0000334 348.4341 11.6503 15.27637764 36372
Epoch: Sep 15, 2025 • Age: 19 hours

当前状态

高度 485.7 km
速度 7.63 km/s
星下点 42.56°N, 77.97°E
发射日期 Jan 21, 2025
运行时间 0.6 years
类型 internet

技术详情

分类 Payload
质量 730.00 kg
干质量 700.00 kg
总质量 730.00 kg
长度 0.30 m
直径 4.10 m
跨度 29.00 m
形状 Box + pan
制造商 SPXS
平台类型 Starlink V2M
阶段状态 In Orbit
所有者/国家 SPXS/US

大型星座

Loading constellations...